Regional Weather Roundup
Issued by NWS

Home | Current Version | Previous Version | Graphics & Text | Print | Product List | Glossary On
Versions: 1 2 3 4 5 6 7 8 9 10 11 12 13 14 15 16 17 18 19 20 21 22 23 24 25 26 27 28 29 30 31 32 33 34 35 36 37 38 39 40 41 42 43 44 45 46 47 48 49 50
000
ASUS43 KMPX 291710
RWRMN
WEATHER ROUNDUP FOR MINNESOTA
NATIONAL WEATHER SERVICE TWIN CITIES/CHANHASSEN MN
1200 PM CDT MON MAY 29 2017


NOTE: "FAIR" INDICATES FEW OR NO CLOUDS BELOW 12,000 FEET WITH NO
SIGNIFICANT WEATHER AND/OR OBSTRUCTIONS TO VISIBILITY. N/A MEANS
CURRENT SKY AND/OR WEATHER CONDITIONS ARE NOT AVAILABLE.

MNZ060>063-068>070-291800-
   Twin Cities Metro

CITY           SKY/WX    TMP DP  RH WIND       PRES   REMARKS
TWIN CITIES    LGT RAIN  59  50  72 W15       29.82R
ST PAUL        CLOUDY    60  49  66 W15G23    29.81R
CRYSTAL        CLOUDY    59  47  64 W13G20    29.80R
BLAINE         CLOUDY    61  50  67 W12       29.81R
LAKEVILLE      CLOUDY    59  48  67 W21G26    29.83R
EDEN PRAIRIE   CLOUDY    62  49  62 W13G21    29.82R
SOUTH ST PAUL  CLOUDY    61  48  63 NW13G21   29.81R
LAKE ELMO      CLOUDY    57  50  77 W13       29.82R
$$
MNZ001>005-007-008-013>017-022>024-027-028-291800-
   Northwest Minnesota

CITY           SKY/WX    TMP DP  RH WIND       PRES   REMARKS
BEMIDJI        CLOUDY    51  44  78 NW20      29.79R
HALLOCK        CLOUDY    54  48  82 NW17G24   29.83S
ROSEAU         CLOUDY    54  46  76 NW16      29.79S
WARROAD        CLOUDY    52  45  76 NW21G28   29.78R
THIEF RVR FALL CLOUDY    52  45  77 NW14      29.84R
CROOKSTON      CLOUDY    52  50  93 NW9       29.86S
FOSSTON        CLOUDY    48  43  81 NW18G28   29.84R
DETROIT LAKES  PTSUNNY   48  45  87 NW15      29.87R
MOORHEAD       CLOUDY    55  48  76 N23       29.89S
PARK RAPIDS    CLOUDY    53  42  66 NW17G26   29.80R
MAHNOMEN       CLOUDY    50  45  82 NW17      29.85R
$$
MNZ006-009>011-018-025>026-291800-
   North Central Minnesota

CITY           SKY/WX    TMP DP  RH WIND       PRES   REMARKS
BAUDETTE       CLOUDY    50  45  83 NW17G25   29.75R
FLAG ISLAND    CLOUDY    52  43  71 NW23      29.74R
INTL FALLS     CLOUDY    52  49  89 W12       29.70R FOG
WASKISH        CLOUDY    52  46  82 NW14      29.76S
BIG FORK       RAIN      52  46  82 W6        29.74R
LONGVILLE      CLOUDY    54  46  76 W10G17    29.77S
GRAND RAPIDS   CLOUDY    51  47  86 NW16G22   29.76R
CRANE LAKE     LGT RAIN  50  48  93 W5        29.68R
ORR            LGT RAIN  48  46  93 NW9       29.68R
COOK           RAIN      50  48  93 W12       29.70R
WALKER         CLOUDY    55  46  72 W14G20    29.77S
$$
MNZ012-019>021-037-291800-
   Northeast Minnesota

CITY           SKY/WX    TMP DP  RH WIND       PRES   REMARKS
DULUTH         LGT RAIN  56  48  74 W14G26    29.69R
ELY            LGT RAIN  50  48  93 W12G21    29.66R
HIBBING        LGT RAIN  50  48  93 W14G21    29.71R
EVELETH        CLOUDY    53  47  80 W16G22    29.70S
DULUTH HARBOR  CLOUDY    59  52  77 W14       29.70S
TWO HARBORS    CLOUDY    61  52  72 NW8G17    29.65S
SILVER BAY     CLOUDY    59  48  67 W8G17     29.63R
GRAND MARAIS     N/A     45  43  93 W9        29.57F
G MARAIS ARPRT CLOUDY    57  46  67 W5        29.59S
$$
MNZ029>031-032-039>041-046>048-054>057-064-291800-
   West Central Minnesota

CITY           SKY/WX    TMP DP  RH WIND       PRES   REMARKS
FERGUS FALLS   CLOUDY    52  52 100 N16G26    29.87R
WHEATON        PTSUNNY   57  46  67 NW16G23   29.92R
MORRIS         PTSUNNY   57  46  67 NW22G29   29.88R
ALEXANDRIA     CLOUDY    57  48  72 NW15      29.86R
ELBOW LAKE     CLOUDY    53  48  83 NW20G25   29.88S
WADENA         PTSUNNY   54  46  76 NW17G23   29.82R
GLENWOOD       MOSUNNY   57  48  72 NW22G28   29.86R
APPLETON       PTSUNNY   61  45  55 NW20G25   29.89R
BENSON         CLOUDY    61  46  59 N20G29    29.90R
ORTONVILLE     PTSUNNY   61  46  59 NW17      29.91R
MADISON        CLOUDY    57  52  82 NW18G24   29.92R
WILLMAR        PTSUNNY   59  46  63 NW22      29.89R
$$
MNZ033>034-036-042>043-049>051-058-059-291800-
   Central Minnesota

CITY           SKY/WX    TMP DP  RH WIND       PRES   REMARKS
ST CLOUD       CLOUDY    58  48  69 NW14      29.81R
SAUK CENTRE    CLOUDY    55  47  73 W15       29.84S
PAYNESVILLE    CLOUDY    56  46  68 NW13G21   29.85R
AITKIN         CLOUDY    57  46  67 W7        29.75S
PINE RIVER     CLOUDY    54  46  76 NW9       29.82R
BRAINERD       CLOUDY    55  47  74 W13G22    29.80R
STAPLES        CLOUDY    55  46  71 NW18      29.80F
LONG PRAIRIE   CLOUDY    54  45  71 W15G22    29.84R
LITTLE FALLS   CLOUDY    55  45  67 W9G18     29.81R
LITCHFIELD     CLOUDY    57  48  72 NW18G26   29.86R
BUFFALO        CLOUDY    62  46  57 W15G22    29.83S
MAPLE LAKE     CLOUDY    58  49  71 W9G24     29.84R
HUTCHINSON     CLOUDY    60  48  64 W15G23    29.86R
$$
MNZ037-044-045-052-053-291800-
   East Central Minnesota

CITY           SKY/WX    TMP DP  RH WIND       PRES   REMARKS
PRINCETON      CLOUDY    59  48  67 W12G21    29.80R
MORA           LGT RAIN  55  48  76 NW9       29.79S
CAMBRIDGE      CLOUDY    59  46  63 W12G18    29.77S
RUSH CITY      CLOUDY    56  50  79 NW7G17    29.78R
MOOSE LAKE     CLOUDY    55  46  71 NW9G17    29.72S
HINCKLEY       CLOUDY    59  48  67 W10G20    29.76R
CLOQUET        CLOUDY    55  45  67 W13G23    29.71S
MCGREGOR       CLOUDY    55  48  76 W13       29.76R
$$
MNZ071>073-080-081-089-090-097-098-291800-
   Southwest Minnesota

CITY           SKY/WX    TMP DP  RH WIND       PRES   REMARKS
MONTEVIDEO     CLOUDY    61  48  63 N14G22    29.90R
CANBY          CLOUDY    57  51  81 W6        29.94R
MARSHALL       CLOUDY    57  46  67 NW14G23   29.93R
REDWOOD FALLS  CLOUDY    59  46  62 NW22G31   29.89S
OLIVIA         CLOUDY    59  45  58 NW20G26   29.87R
PIPESTONE      PTSUNNY   57  45  62 NW14      29.96R
WINDOM         MOSUNNY   57  46  67 W20       29.92R
WORTHINGTON    CLOUDY    58  46  64 W17G25    29.95R
JACKSON        CLOUDY    61  46  59 W21       29.93R
TRACY          CLOUDY    60  48  65 NW15      29.94R
SLAYTON        CLOUDY    57  47  70 W20       29.95R
$$
MNZ065>067-074>077-082>085-091>093-291800-
   South Central Minnesota

CITY           SKY/WX    TMP DP  RH WIND       PRES   REMARKS
MANKATO        CLOUDY    60  46  59 NW16G23   29.87S
NEW ULM        CLOUDY    59  46  63 W21G28    29.88R
ST JAMES       PTSUNNY   61  46  59 W21       29.91R
FAIRMONT       CLOUDY    61  45  55 W17       29.90R
GLENCOE        CLOUDY    60  50  69 W16G22    29.84S
FARIBAULT      CLOUDY    63  46  55 W18G24    29.85R
OWATONNA       MOSUNNY   61  46  59 W18       29.86R
WASECA         PTSUNNY   63  46  55 W25G35    29.88R
ALBERT LEA     PTSUNNY   63  50  63 W9        29.87R
$$
MNZ078>079-086>088-094>096-291800-
   Southeast Minnesota

CITY           SKY/WX    TMP DP  RH WIND       PRES   REMARKS
ROCHESTER      PTSUNNY   61  47  59 W24       29.85R
RED WING       LGT RAIN  59  48  67 W14G24    29.81R
STANTON        CLOUDY    61  49  63 W18G24    29.82R
DODGE CENTER   MOSUNNY   59  46  63 W16G26    29.85R
WINONA         PTSUNNY   61  45  55 W8G16     29.82S
AUSTIN         PTSUNNY   61  46  59 NW18G26   29.86S
PRESTON        CLOUDY    58  44  60 W17G28    29.86R
$$
ABBREVIATIONS USED IN REMARKS
   TC - TEMPERATURES IN CELSIUS
  WCI - WIND CHILL INDEX
   HX - HEAT INDEX
  VSB - VISIBILITY
$$




USA.gov is the U.S. government's official web portal to all federal, state and local government web resources and services.